AirNav   Phillips 66 Aviation Fuel
 
 1608 users online  

KSLJ Hagler Army Heliport
Camp Shelby, Mississippi, USA

GOING TO CAMP SHELBY?


FAA INFORMATION EFFECTIVE 24 MAY 2018

Location

FAA Identifier: SLJ
Lat/Long: 31-10-25.6480N / 089-11-28.2070W
31-10.427467N / 089-11.470117W
31.1737911 / -89.1911686
(estimated)
Elevation: 280 ft. / 85 m (estimated)
Variation: 02E (1985)
From city: 10 miles SE of CAMP SHELBY, MS
Time zone: UTC -5 (UTC -6 during Standard Time)
Zip code: 39401

Heliport Operations

Heliport use: Private use. Permission required prior to landing
Control tower: yes
ARTCC: HOUSTON CENTER
FSS: GREENWOOD FLIGHT SERVICE STATION
NOTAMs facility: GWO (NOTAM-D service available)
Attendance: MAY-AUG/IREG/
ATNDD DURG ANNUAL TRNG PERIODS MID- MAY THRU MID--AUG, PPR DSN 921-2869, CO 601-558-2869.
Segmented circle: no
Lights: SS-SR

Heliport Communications

CTAF: 126.2
HAGLER TOWER: 126.2 241.0 [0630-1500]
WX ASOS at HBG (6 nm NW): 135.425 (601-544-2185)
WX AWOS-3PT at PIB (19 nm NW): 128.325 (601-584-6701)
  • COMMUNICATIONS THROUGH MC COMB FSS.

Nearby radio navigation aids

VOR radial/distance  VOR name  Freq  Var
LBYr148/16.5EATON VORTAC110.6005E
GCVr272/36.5GREENE COUNTY VORTAC115.7005E

 
NDB name  Hdg/Dist  Freq  Var  ID
BOGALUSA063/38.735300WGVB --. ...- -...

Heliport Services

Runway Information

Runway 14/32

Dimensions: 5000 x 60 ft. / 1524 x 18 m
Surface: asphalt
Runway edge lights: high intensity
RUNWAY 14  RUNWAY 32
Traffic pattern: rightleft
Visual slope indicator: 4-light PAPI on left4-light PAPI on left

Heliport Ownership and Management from official FAA records

Ownership: U.S. Army
Owner: HAGLER ARMY AIRFIELD
9325 GUNSTON ROAD
FT BELVOIR, VA 22060

Additional Remarks

PPR DSN 286-2709; C6011-558-2709.
C130 OPERATIONS CONTACT ANG TRAINING SITE; AUTOVON 363-8200 FOR SCHEDULING & BRIEFING. AFLD LMTD TO ONE C130 AT A TIME ON GROUND.
SERVICE LGT: HIRL AND PAPI NOT OPERATIONAL. TWR NOT OPERATIONAL. NO SERVICES AVAILABLE.
MISC: NO FIXED WING TRAFFIC ALLOWED. UAS CATCH CABLES AND NETS ON RWY 14/32. HELICOPTER AND UAS HIGH TRAFFIC AREA.

Instrument Procedures

There are no published instrument procedures at KSLJ.

Some nearby airports with instrument procedures:

KHBG - Hattiesburg Bobby L Chain Municipal Airport (6 nm NW)
KPIB - Hattiesburg-Laurel Regional Airport (19 nm NW)
M13 - Poplarville-Pearl River County Airport (28 nm SW)
KLUL - Hesler-Noble Field Airport (30 nm N)
0R0 - Columbia-Marion County Airport (33 nm W)
 
Loc | Ops | Rwys | IFR | FBO | Links
Com | Nav | Svcs | Stats | Notes

AirNav Hotels Sweepstakes
 
Area around KSLJ (Hagler Army Heliport)
 
Road maps at: MapQuest Bing Google
 
Aerial photo
No photo
 
Sectional chart

 
Airport distance calculator
Flying to Hagler Army Heliport? Find the distance to fly.

From to KSLJ

Sunrise and sunset
Times for 25-May-2018
 Local
(UTC-5)
 Zulu
(UTC)
Morning civil twilight05:3010:30
Sunrise05:5710:57
Sunset19:5100:51
Evening civil twilight20:1801:18

Current date and time
Zulu (UTC)  25-May-2018 14:51:57
Local (UTC-5)  25-May-2018 09:51:57
 
METAR
KHBG 
6nm NW 
251353Z AUTO 00000KT 10SM SCT100 BKN120 24/22 A3004 RMK AO2 SLP170 T02440222
KPIB 
19nm N 
251405Z AUTO 00000KT 10SM FEW002 BKN049 OVC060 22/22 A3005 RMK AO2
KLUL 
19nm N 
251435Z AUTO 00000KT BKN007 BKN049 24/23 A3004 RMK AO2 T02390227
TAF
KHBG 
6nm NW 
251143Z 2512/2612 VRB03KT 6SM BR SCT002 FM251300 VRB03KT P6SM SCT025 SCT040 FM251700 VRB04KT P6SM VCTS SCT030 BKN050CB FM252000 VRB04KT P6SM -SHRA VCTS BKN035CB BKN060 FM260100 15003KT P6SM BKN100
NOTAMs
Click for the latest NOTAMs
NOTAMs are issued by the DoD/FAA and will open in a separate window not controlled by AirNav.

 

 
 

Would you like to see your business listed on this page?

 If your business provides an interesting product or service to pilots, flight crews, aircraft, or users of the Hagler Army Heliport, you should consider listing it here.  To start the listing process, click on the button below
 
Add a business
 

Other Pages about Hagler Army Heliport

Update a link
 
Copyright © AirNav, LLC. All rights reserved. Privacy Policy  Contact